TimeEDT,TemperatureF,Dew PointF,Humidity,Sea Level PressureIn,VisibilityMPH,Wind Direction,Wind SpeedMPH,Gust SpeedMPH,PrecipitationIn,Events,Conditions,WindDirDegrees,DateUTC
12:54 AM,62.1,57.0,84,30.27,10.0,Calm,Calm,-,N/A,,Clear,0,2012-09-14 04:54:00
1:54 AM,62.1,57.0,84,30.27,10.0,Calm,Calm,-,N/A,,Clear,0,2012-09-14 05:54:00
2:54 AM,60.1,55.0,83,30.27,10.0,Calm,Calm,-,N/A,,Mostly Cloudy,0,2012-09-14 06:54:00
3:54 AM,61.0,54.0,78,30.25,10.0,NNE,3.5,-,N/A,,Mostly Cloudy,20,2012-09-14 07:54:00
4:54 AM,60.1,53.1,78,30.25,10.0,Calm,Calm,-,N/A,,Partly Cloudy,0,2012-09-14 08:54:00
5:54 AM,59.0,54.0,83,30.24,10.0,Calm,Calm,-,N/A,,Partly Cloudy,0,2012-09-14 09:54:00
6:12 AM,59.0,53.6,82,30.26,10.0,Calm,Calm,-,N/A,,Mostly Cloudy,0,2012-09-14 10:12:00
6:42 AM,60.8,53.6,77,30.27,10.0,NE,4.6,-,N/A,,Overcast,40,2012-09-14 10:42:00
6:54 AM,60.1,54.0,80,30.25,10.0,NNE,3.5,-,N/A,,Overcast,30,2012-09-14 10:54:00
7:49 AM,60.8,55.4,82,30.27,10.0,NNE,3.5,-,N/A,,Overcast,30,2012-09-14 11:49:00
7:54 AM,62.1,55.9,80,30.25,10.0,NNE,3.5,-,N/A,,Overcast,20,2012-09-14 11:54:00
8:54 AM,64.0,60.1,87,30.25,8.0,Calm,Calm,-,N/A,,Mostly Cloudy,0,2012-09-14 12:54:00
9:47 AM,68.0,62.6,83,30.28,10.0,Variable,3.5,-,N/A,,Partly Cloudy,0,2012-09-14 13:47:00
9:54 AM,66.9,63.0,87,30.26,10.0,NNW,3.5,-,N/A,,Partly Cloudy,330,2012-09-14 13:54:00
10:54 AM,68.0,64.0,87,30.26,10.0,NNE,4.6,-,N/A,,Mostly Cloudy,30,2012-09-14 14:54:00
11:11 AM,69.8,64.4,83,30.27,10.0,Variable,3.5,-,N/A,,Partly Cloudy,0,2012-09-14 15:11:00
11:54 AM,73.0,64.0,73,30.24,10.0,Calm,Calm,-,N/A,,Partly Cloudy,0,2012-09-14 15:54:00
12:54 PM,75.9,61.0,60,30.23,10.0,WNW,3.5,-,N/A,,Scattered Clouds,290,2012-09-14 16:54:00
1:54 PM,78.1,61.0,56,30.20,10.0,Variable,3.5,-,N/A,,Scattered Clouds,0,2012-09-14 17:54:00
2:54 PM,81.0,60.1,49,30.18,10.0,North,3.5,-,N/A,,Scattered Clouds,10,2012-09-14 18:54:00
3:54 PM,79.0,60.1,52,30.16,10.0,East,4.6,-,N/A,,Scattered Clouds,80,2012-09-14 19:54:00
4:54 PM,79.0,57.0,47,30.15,10.0,Calm,Calm,-,N/A,,Scattered Clouds,0,2012-09-14 20:54:00
5:54 PM,81.0,57.9,45,30.15,10.0,North,4.6,-,N/A,,Scattered Clouds,10,2012-09-14 21:54:00
6:54 PM,75.9,61.0,60,30.17,10.0,SE,4.6,-,N/A,,Scattered Clouds,140,2012-09-14 22:54:00
7:54 PM,72.0,61.0,68,30.15,10.0,SE,4.6,-,N/A,,Partly Cloudy,140,2012-09-14 23:54:00
8:54 PM,70.0,61.0,73,30.16,10.0,Calm,Calm,-,N/A,,Clear,0,2012-09-15 00:54:00
9:54 PM,70.0,62.1,76,30.16,10.0,Calm,Calm,-,N/A,,Clear,0,2012-09-15 01:54:00
10:54 PM,68.0,61.0,78,30.16,10.0,Calm,Calm,-,N/A,,Clear,0,2012-09-15 02:54:00
11:54 PM,66.9,62.1,84,30.16,10.0,Calm,Calm,-,N/A,,Clear,0,2012-09-15 03:54:00